Star Lake-Putnam County Weather Center

Moon Phase Calendar



Star Lake-Putnam County Water Level
Online Cameras

 


      

Current Conditions in Lochloosa
5/28/2022 9:14:39 PM

79°F
Feels Like 79
Clear
Humidity
49%
Pressure
29.88"
Wind
6.2 mph (WSW)
Dew Point
58°F
UV Index
0/10 (Low)
Visibility
6 mi

Hourly Forecast

Date & Time Sat, May 28
9:00 PM
Sat, May 28
10:00 PM
Sat, May 28
11:00 PM
Sun, May 29
12:00 AM
Sun, May 29
1:00 AM
Sun, May 29
2:00 AM
Sun, May 29
3:00 AM
Sun, May 29
4:00 AM
Sun, May 29
5:00 AM
Sun, May 29
6:00 AM
Sun, May 29
7:00 AM
Sun, May 29
8:00 AM
Sun, May 29
9:00 AM
Sun, May 29
10:00 AM
Sun, May 29
11:00 AM
Sun, May 29
12:00 PM
Sun, May 29
1:00 PM
Sun, May 29
2:00 PM
Sun, May 29
3:00 PM
Sun, May 29
4:00 PM
Sun, May 29
5:00 PM
Sun, May 29
6:00 PM
Sun, May 29
7:00 PM
Sun, May 29
8:00 PM
Sun, May 29
9:00 PM
Sun, May 29
10:00 PM
Sun, May 29
11:00 PM
Mon, May 30
12:00 AM
Mon, May 30
1:00 AM
Mon, May 30
2:00 AM
Mon, May 30
3:00 AM
Mon, May 30
4:00 AM
Mon, May 30
5:00 AM
Mon, May 30
6:00 AM
Mon, May 30
7:00 AM
Mon, May 30
8:00 AM
Mon, May 30
9:00 AM
Mon, May 30
10:00 AM
Mon, May 30
11:00 AM
Mon, May 30
12:00 PM
Mon, May 30
1:00 PM
Mon, May 30
2:00 PM
Mon, May 30
3:00 PM
Mon, May 30
4:00 PM
Mon, May 30
5:00 PM
Mon, May 30
6:00 PM
Mon, May 30
7:00 PM
Mon, May 30
8:00 PM
Condition
Clear

Clear

Clear

Clear

Clear

Clear

Clear

Clear

Clear

Clear

Clear

Clear

Clear

Clear

Clear

Clear

Clear

Clear

Clear

Clear

Clear

Clear

Clouds

Rain

Rain

Rain

Clouds

Clouds

Rain

Rain

Clouds

Clouds

Clouds

Clouds

Clouds

Clouds

Clear

Clear

Clear

Clear

Clear

Clear

Clouds

Rain

Rain

Rain

Rain

Rain
Temperature 79°F78°F77°F75°F72°F70°F70°F69°F69°F68°F69°F74°F80°F85°F89°F92°F95°F96°F97°F97°F97°F92°F86°F79°F71°F69°F69°F68°F68°F67°F67°F67°F67°F66°F67°F72°F77°F82°F87°F90°F93°F95°F95°F83°F83°F78°F69°F69°F
Feels Like 79°F78°F77°F75°F73°F71°F70°F70°F69°F69°F69°F75°F80°F86°F89°F91°F93°F94°F94°F94°F94°F92°F88°F79°F72°F70°F69°F69°F68°F68°F68°F68°F67°F67°F68°F72°F78°F84°F88°F91°F94°F96°F96°F85°F85°F79°F69°F70°F
Cloudiness 0%0%0%0%0%0%0%0%0%0%0%0%0%0%0%0%0%0%0%0%2%7%23%36%73%82%88%72%59%50%77%42%30%24%19%17%1%1%1%2%2%7%50%75%77%83%86%89%
Visibility 6 mi6 mi6 mi6 mi6 mi6 mi6 mi6 mi6 mi6 mi6 mi6 mi6 mi6 mi6 mi6 mi6 mi6 mi6 mi6 mi6 mi6 mi6 mi6 mi6 mi6 mi6 mi6 mi6 mi6 mi6 mi6 mi6 mi6 mi6 mi6 mi6 mi6 mi6 mi6 mi6 mi6 mi6 mi6 mi6 mi6 mi6 mi6 mi
Precipitation 0%0%0%0%0%0%0%0%0%0%0%0%0%0%0%0%0%0%0%3%3%3%7%38%53%37%38%34%49%49%0%10%22%22%22%22%0%0%0%0%0%0%16%35%45%64%85%100%
Humidity 49%51%56%62%70%78%80%82%84%85%84%71%57%44%36%32%26%23%21%20%21%34%49%68%86%86%84%85%86%87%87%87%87%89%86%76%61%55%48%41%36%32%33%58%59%73%90%91%
Dew Point 58°F58°F60°F61°F62°F63°F63°F63°F63°F63°F64°F64°F63°F61°F59°F58°F55°F53°F52°F50°F51°F59°F64°F67°F66°F65°F64°F63°F63°F63°F63°F63°F63°F63°F63°F63°F63°F64°F64°F64°F63°F61°F62°F66°F67°F68°F65°F66°F
Pressure 29.88"29.88"29.91"29.91"29.94"29.94"29.94"29.94"29.94"29.94"29.97"29.97"30"30"30"29.97"29.97"29.94"29.91"29.88"29.88"29.88"29.91"29.97"30"30"30.03"30.03"30.03"30.03"30"30"30.03"30.03"30.03"30.06"30.06"30.06"30.06"30.03"30.03"30"29.97"30"29.97"30"30"30.06"
Wind Speed 6.2 mph4.2 mph4.2 mph4 mph2.9 mph2.8 mph2.3 mph2.7 mph2.3 mph1 mph1.1 mph1.3 mph0.9 mph1.7 mph2.8 mph3.4 mph4 mph4.2 mph4.6 mph5.1 mph3.4 mph10.2 mph11.6 mph11.7 mph5.4 mph2 mph3.2 mph2.2 mph4.2 mph3 mph2.1 mph1.2 mph4 mph3.2 mph2.9 mph3.2 mph4.1 mph5.3 mph5.6 mph5.5 mph5.3 mph4.8 mph7.8 mph9.2 mph8.9 mph11.9 mph10.8 mph3.2 mph
Wind
Direction
238°
WSW
247°
WSW
266°
W
265°
W
248°
WSW
244°
WSW
251°
WSW
264°
W
259°
W
233°
SW
248°
WSW
234°
SW
226°
SW
159°
SSE
152°
SSE
162°
SSE
170°
S
173°
S
174°
S
184°
S
147°
SSE
93°
E
110°
ESE
149°
SSE
174°
S
170°
S
133°
SE
157°
SSE
165°
SSE
156°
SSE
181°
S
253°
WSW
74°
ENE
89°
E
94°
E
99°
E
105°
ESE
96°
E
103°
ESE
114°
ESE
120°
ESE
134°
SE
95°
E
90°
E
80°
E
32°
NNE
49°
NE
66°
ENE

Daily Forecast

Date High Low Precip. Humidity
Today
May 28

Clear
93 °F
68 °F
29%
28%
Sunday
May 29

Rain
97 °F
68 °F
53%
26%
Monday
May 30

Rain
95 °F
66 °F
100%
36%
Tuesday
May 31

Rain
94 °F
69 °F
75%
33%
Wednesday
Jun 1

Clouds
94 °F
70 °F
38%
29%
Thursday
Jun 2

Clear
94 °F
69 °F
0%
30%
Friday
Jun 3

Clear
99 °F
71 °F
0%
24%
Saturday
Jun 4

Clear
98 °F
73 °F
1%
29%
Sunday
Jun 5

Rain
99 °F
73 °F
30%
29%
Monday
Jun 6

Rain
102 °F
73 °F
98%
27%
Tuesday
Jun 7

Rain
88 °F
73 °F
92%
72%
Wednesday
Jun 8

Clear
89 °F
69 °F
0%
32%
Thursday
Jun 9

Clouds
89 °F
70 °F
0%
34%
Friday
Jun 10

Rain
88 °F
71 °F
85%
67%
Saturday
Jun 11

Rain
96 °F
71 °F
78%
33%
Sunday
Jun 12

Rain
85 °F
70 °F
100%
57%

Temperature 8-14 Day Outlook



Precipitation 8-14 Day Outlook




Quick Links
Star Lake-Putnam County News
Star Lake-Putnam County Photos
Star Lake-Putnam County Videos




About Us
Contact Us
Site Map
Search Site
Advertise With Us
   
Star-PutnamCounty.LakesOnline.com
THE STAR LAKE-PUTNAM COUNTY WEBSITE

Copyright 2022, Lakes Online
Privacy    |    Legal